Simultaneous Nadir Overpasses (SNOs) Predictions

Prediction of SNOs between AURA and NPP Satellite Orbit:

Table of predicted SNOs for the next 14.0 days since TLE Epoch: 5/10/2015
Index Date (AURA) Time (AURA) Lat,Lon (AURA) SZA (AURA ) Date (NPP) Time (NPP) Lat,Lon (NPP) SZA (NPP ) Distance(km) Time Diff (sec)
1 05/11/2015 16:41:56 -78.18, -1.08 103.59 05/11/2015 16:40:51 -78.18, -1.07 103.55 0.32 65
2 05/11/2015 17:31:12 78.60, 168.66 75.86 05/11/2015 17:31:25 78.59, 168.60 75.86 1.44 13
3 05/14/2015 08:58:19 -78.42, 115.95 104.55 05/14/2015 08:57:40 -78.42, 116.06 104.55 2.60 39
4 05/14/2015 09:47:35 78.82, -74.23 74.90 05/14/2015 09:48:14 78.83, -74.18 74.86 1.20 39
5 05/17/2015 01:14:43 -78.58,-127.34 105.38 05/17/2015 01:14:31 -78.58,-127.24 105.39 2.18 12
6 05/17/2015 02:04:00 78.93, 42.28 74.14 05/17/2015 02:05:06 78.94, 42.32 74.08 0.97 66
7 05/19/2015 16:41:51 78.17, 178.89 74.58 05/19/2015 16:40:50 78.17, 178.87 74.64 0.49 61
8 05/19/2015 17:31:08 -78.62, -11.21 106.01 05/19/2015 17:31:24 -78.62, -11.26 106.02 1.06 16
9 05/22/2015 08:58:13 78.36, -64.30 73.81 05/22/2015 08:57:40 78.36, -64.32 73.84 0.52 33




NCC Satellite Simultaneous Nadir Overpasses (SNOs) Prediction Service
